Regional Weather Roundup
Issued by NWS

Home | Current Version | Previous Version | Graphics & Text | Print | Product List | Glossary On
Versions: 1 2 3 4 5 6 7 8 9 10 11 12 13 14 15 16 17 18 19 20 21 22 23 24 25 26 27 28
000
ASUS45 KBOU 191410
RWRCO

WEATHER ROUNDUP FOR COLORADO
NATIONAL WEATHER SERVICE DENVER/BOULDER CO
700 AM MST FRI JAN 19 2018

NOTE: "FAIR" INDICATES FEW OR NO CLOUDS BELOW 12000 FEET WITH NO
SIGNIFICANT WEATHER AND/OR OBSTRUCTIONS TO VISIBILITY.

COZ001>005-013-030-031-191500-
...NORTHWEST COLORADO...

CITY           SKY/WX    TMP DP  RH WIND       PRES   REMARKS
CRAIG          FAIR      20  12  71 SE6       29.97F WCI  12
HAYDEN         FAIR     N/A N/A N/A E8        29.98F
MEEKER         FAIR      25  17  72 CALM      29.98S
RABBIT EARS PA FAIR      27  19  74 W9G20     30.02F WCI  17
STEAMBOAT SPGS FAIR      13  10  90 E3        29.98F
WALDEN         FAIR      32  12  43 S12       29.95R WCI  23
$$

COZ006>008-011-191500-
...WEST CENTRAL VALLEYS...

CITY           SKY/WX    TMP DP  RH WIND       PRES   REMARKS
GRAND JUNCTION FAIR      24  18  77 VRB5      30.03F WCI  18
MONTROSE       FAIR      22  15  75 SE7       30.07F WCI  13
EAGLE          FAIR      12   8  84 CALM      30.09F
RIFLE          FAIR      20  16  84 CALM      30.06F
DELTA          FAIR      27  17  66 CALM      30.05F
NUCLA          FAIR      28  14  54 S6        30.12S WCI  22
$$

COZ017>023-064>068-191500-
...SOUTHWEST COLORADO...

CITY           SKY/WX    TMP DP  RH WIND       PRES   REMARKS
DURANGO        FAIR      17  14  88 NE6       30.14R WCI   9
CORTEZ         FAIR      18  15  88 CALM      30.12S
PAGOSA SPRINGS FAIR      24  16  69 CALM      30.14F
TELLURIDE      FAIR      33  15  47 SE7       30.16S WCI  27
WOLF CREEK PAS FAIR      23   9  54 S12       30.25F WCI  12
$$

COZ009-010-012-014-032>034-037-058>063-191500-
...CENTRAL COLORADO...

CITY           SKY/WX    TMP DP  RH WIND       PRES   REMARKS
ASPEN          FAIR      21  13  71 S7        30.03F WCI  12
BUENA VISTA    FAIR      24  10  56 E7        30.02F WCI  16
COPPER MTN     NOT AVBL
BERTHOUD PASS  FAIR      27  14  59 W37G51    30.05R WCI   9
COTTONWOOD PAS   N/A     45  10  24 NW7G25    30.06F
GUNNISON       FAIR       5   2  87 CALM      30.18F
KREMMLING      FAIR      10   7  85 NE3       30.04S
LEADVILLE      FAIR      23  10  57 NE6       30.05S WCI  16
MONARCH PASS   FAIR      25   5  42 W36G43    30.24F WCI   7
SALIDA         FAIR      39   8  27 SW12G18   30.09S
SUNLIGHT       FAIR      27   9  46 SW16G29   30.11F WCI  14
WILKERSON PASS FAIR      30  10  43 SW23G32   30.09S WCI  17
$$

COZ069>075-191500-
...SAN LUIS VALLEY/SANGRE DE CRISTO MOUNTAINS...

CITY           SKY/WX    TMP DP  RH WIND       PRES   REMARKS
ALAMOSA        FAIR       9  -3  58 W5        30.12S WCI   1
DEL NORTE      FAIR      20   6  53 W7        30.12F WCI  11
LA VETA PASS   FAIR      30   3  31 SW31G40     N/A  WCI  15
SAGUACHE       FAIR      16   1  53 N5        30.12S WCI   9
$$

COZ035-036-038>040-191500-
...NORTHERN COLORADO FRONT RANGE...

CITY           SKY/WX    TMP DP  RH WIND       PRES   REMARKS
DENVER INTL AP MOCLDY    50  13  22 S17       29.79S
DMNS CITY PARK NOT AVBL
AURORA         MOCLDY    45  15  29 S13       29.81F
FRONT RANGE AP MOCLDY    50  16  25 S16       29.81S
ERIE MUNI ARPT FAIR      43  16  33 W5        29.84S
BOULDER MUN AP FAIR      59  16  18 SW8       29.79R
CENTENNIAL     MOCLDY    55  10  16 S9        29.82F
BROOMFIELD     MOCLDY    48  14  25 W8        29.81S
FORT COLLINS   FAIR      33  23  66 VRB7      29.78S WCI  27
LONGMONT       FAIR      49  20  32 SW6       29.80R
$$

COZ041-046-047-076>085-087-088-191500-
...PIKES PEAK/PALMER DIVIDE AND SOUTHERN FOOTHILLS...

CITY           SKY/WX    TMP DP  RH WIND       PRES   REMARKS
COLO. SPRINGS  CLOUDY    43   9  24 S8        29.87F
A. F. ACADEMY  FAIR      48  13  24 W6        29.87R
SCHRIEVER AFB  NOT AVBL
CHEYENNE MTN   NOT AVBL
ELLICOTT         N/A    N/A N/A N/A CALM      29.86S
FALCON         FAIR      56   9  15 NW9G23    29.90S
FORT CARSON    CLEAR     37  12  35 NW6       29.85F
LIMON          FAIR      22  14  71 N3        29.83S
MONUMENT HILL  FAIR      45  14  29 W3        29.91S
CANON CITY     FAIR      48  14  25 W10       29.87S
WALSENBURG     FAIR      52   7  16 W17G25    29.93F
TRINIDAD       FAIR      34  12  40 W15       29.91S WCI  24
$$

COZ042>045-048>051-090-091-191500-
...NORTHEAST COLORADO...

CITY           SKY/WX    TMP DP  RH WIND       PRES   REMARKS
GREELEY ARPT   FAIR      25  21  85 CALM      29.79F
AKRON          FAIR      44  13  28 SW12      29.76F
BURLINGTON     FAIR      41  14  33 SW13      29.79F
WRAY           FAIR      34  18  51 W7        29.77S WCI  28
YUMA           FAIR      32  14  47 W10       29.76F WCI  24
STERLING       FAIR      28  19  69 SW7       29.76R WCI  21
HOLYOKE        FAIR      34  21  60 W6        29.75F WCI  29
FORT MORGAN    FAIR      27  16  63 W5        29.79S WCI  21
$$

COZ086-089-092>099-191500-
...SOUTHEAST COLORADO...

CITY           SKY/WX    TMP DP  RH WIND       PRES   REMARKS
PUEBLO         FAIR      30  15  53 W9        29.85F WCI  22
LA JUNTA       FAIR      27  14  58 W8        29.85S WCI  19
LAMAR          FAIR      20   9  62 SW8       29.83F WCI  10
SPRINGFIELD      N/A     24   9  52 W7        29.86S WCI  16
$$




USA.gov is the U.S. government's official web portal to all federal, state and local government web resources and services.